Weather History for KSVH - February, 2013

Change the Weather History Date:

Wednesday, February 20, 2013

  Actual Average (KHKY) Record (KHKY)
Temperature  
Mean Temperature 40 °F -  
Max Temperature 53 °F 54 °F - (-1)
Min Temperature 28 °F 33 °F - (-1)
Degree Days  
Heating Degree Days 24    
Moisture  
Dew Point 9 °F    
Average Humidity 29    
Maximum Humidity 55    
Minimum Humidity 16    
Precipitation  
Precipitation 0.00 in - - ()
Sea Level Pressure  
Sea Level Pressure 30.05 in    
Wind  
Wind Speed 5 mph (West)    
Max Wind Speed 14 mph    
Max Gust Speed 18 mph    
Visibility 10 miles    
Events      
Averages and records for this station are not official NWS values.
T = Trace of Precipitation, MM = Missing Value Source: NWS Daily Summary

Daily Weather History Graph

Daily Weather History Graph

Search for Another Location

Airport or City:

Trip Planner

Search our weather history database for the weather conditions in past years. The results will help you decide how hot, cold, wet, or windy it might be!

Date:

Astronomy

Feb. 20, 2013 Rise Set
Actual Time 7:04 AM EST 6:10 PM EST
Civil Twilight 6:38 AM EST 6:36 PM EST
Nautical Twilight 6:09 AM EST 7:06 PM EST
Astronomical Twilight 5:39 AM EST 7:36 PM EST
Moon 1:36 PM EST (2/20) 3:17 AM EST (2/20)
Length of Visible Light 11h 57m
Length of Day
11h 05m
Waxing Gibbous, 76% of the Moon is Illuminated
Feb 20
Waxing Gibbous
Feb 25
Full
Mar 4
Last Quarter
Mar 11
New
Mar 19
First Quarter

Hourly Weather History & Observations

Time (EST) Temp. Windchill Dew Point Humidity Pressure Visibility Wind Dir Wind Speed Gust Speed Precip Events Conditions
12:15 AM 38.3 °F 31.9 °F 14.4 °F 38% 30.01 in 10.0 mi West 9.2 mph - N/A   Clear
1:37 AM 35.6 °F - 12.2 °F 38% 30.03 in 10.0 mi Calm Calm - N/A   Clear
1:57 AM 35.6 °F - 12.2 °F 38% 30.03 in 10.0 mi Calm Calm - N/A   Clear
2:19 AM 33.8 °F - 14.0 °F 44% 30.02 in 10.0 mi Calm Calm - N/A   Clear
2:37 AM 32.0 °F - 14.0 °F 48% 30.02 in 10.0 mi Calm Calm - N/A   Clear
2:57 AM 33.8 °F - 12.2 °F 41% 30.02 in 10.0 mi Calm Calm - N/A   Clear
3:17 AM 33.8 °F 30.8 °F 10.4 °F 38% 30.03 in 10.0 mi West 3.5 mph - N/A   Clear
3:39 AM 33.8 °F 26.4 °F 12.2 °F 41% 30.03 in 10.0 mi West 9.2 mph - N/A   Clear
3:59 AM 33.8 °F 29.6 °F 10.4 °F 38% 30.03 in 10.0 mi West 4.6 mph - N/A   Clear
4:17 AM 32.0 °F - 10.4 °F 41% 30.02 in 10.0 mi Calm Calm - N/A   Clear
4:37 AM 33.8 °F 30.8 °F 8.6 °F 35% 30.03 in 10.0 mi WSW 3.5 mph - N/A   Clear
4:57 AM 32.0 °F 28.7 °F 10.4 °F 41% 30.04 in 10.0 mi West 3.5 mph - N/A   Clear
5:19 AM 30.2 °F 26.7 °F 10.4 °F 44% 30.04 in 10.0 mi West 3.5 mph - N/A   Clear
5:37 AM 28.4 °F 23.3 °F 12.2 °F 51% 30.04 in 10.0 mi West 4.6 mph - N/A   Clear
6:17 AM 28.4 °F - 12.2 °F 51% 30.03 in 10.0 mi Calm Calm - N/A   Clear
6:37 AM 28.4 °F 22.2 °F 14.0 °F 55% 30.04 in 10.0 mi SE 5.8 mph - N/A   Clear
6:57 AM 28.4 °F 24.6 °F 12.2 °F 51% 30.04 in 10.0 mi South 3.5 mph - N/A   Clear
7:17 AM 28.4 °F 23.3 °F 12.2 °F 51% 30.05 in 10.0 mi SSW 4.6 mph - N/A   Clear
7:57 AM 30.2 °F 26.7 °F 12.2 °F 47% 30.06 in 10.0 mi SSW 3.5 mph - N/A   Clear
8:17 AM 33.8 °F 30.8 °F 10.4 °F 38% 30.06 in 10.0 mi SW 3.5 mph - N/A   Clear
8:37 AM 35.6 °F - 10.4 °F 35% 30.05 in 10.0 mi Calm Calm - N/A   Clear
8:57 AM 37.4 °F 34.9 °F 10.4 °F 33% 30.06 in 10.0 mi SW 3.5 mph - N/A   Clear
9:15 AM 38.1 °F 34.6 °F 10.6 °F 32% 30.06 in 10.0 mi WSW 4.6 mph - N/A   Clear
9:35 AM 39.6 °F 32.1 °F 9.1 °F 29% 30.06 in 10.0 mi WSW 12.7 mph 16.1 mph N/A   Clear
9:55 AM 39.2 °F 33.0 °F 9.3 °F 29% 30.07 in 10.0 mi WSW 9.2 mph - N/A   Clear
10:15 AM 40.1 °F 35.3 °F 11.3 °F 31% 30.08 in 10.0 mi WSW 6.9 mph - N/A   Clear
10:35 AM 42.4 °F 35.3 °F 8.4 °F 25% 30.07 in 10.0 mi West 13.8 mph 18.4 mph N/A   Clear
11:15 AM 44.6 °F 39.7 °F 9.0 °F 23% 30.07 in 10.0 mi WSW 9.2 mph - N/A   Clear
11:35 AM 45.0 °F 39.7 °F 5.5 °F 20% 30.08 in 10.0 mi SSW 10.4 mph 17.3 mph N/A   Clear
11:55 AM 46.9 °F - 7.9 °F 20% 30.07 in 10.0 mi WSW 9.2 mph - N/A   Clear
12:15 PM 47.1 °F - 8.6 °F 21% 30.05 in 10.0 mi West 5.8 mph - N/A   Clear
12:35 PM 50.2 °F - 10.4 °F 20% 30.04 in 10.0 mi WSW 11.5 mph - N/A   Clear
12:55 PM 49.8 °F - 5.9 °F 17% 30.04 in 10.0 mi WSW 11.5 mph 18.4 mph N/A   Clear
1:15 PM 50.7 °F - 7.7 °F 18% 30.03 in 10.0 mi West 13.8 mph 17.3 mph N/A   Clear
1:35 PM 52.3 °F - 11.5 °F 20% 30.03 in 10.0 mi West 9.2 mph - N/A   Clear
1:55 PM 51.4 °F - 8.2 °F 18% 30.02 in 10.0 mi West 11.5 mph - N/A   Unknown
2:15 PM 51.8 °F - 9.0 °F 18% 30.02 in 10.0 mi WSW 9.2 mph - N/A   Unknown
2:35 PM 53.2 °F - 10.6 °F 18% 30.01 in 10.0 mi WSW 8.1 mph - N/A   Clear
2:55 PM 52.2 °F - 7.5 °F 17% 30.01 in 10.0 mi NW 6.9 mph 17.3 mph N/A   Clear
3:15 PM 52.2 °F - 9.3 °F 18% 30.00 in 10.0 mi West 5.8 mph - N/A   Clear
3:35 PM 52.3 °F - 9.9 °F 18% 30.01 in 10.0 mi West 6.9 mph - N/A   Clear
3:55 PM 52.2 °F - 6.6 °F 16% 30.01 in 10.0 mi West 8.1 mph - N/A   Clear
4:15 PM 51.8 °F - 9.0 °F 18% 30.02 in 10.0 mi NW 6.9 mph - N/A   Clear
4:35 PM 51.3 °F - 9.0 °F 18% 30.02 in 10.0 mi NNW 5.8 mph - N/A   Clear
4:55 PM 50.9 °F - 7.3 °F 17% 30.03 in 10.0 mi NW 5.8 mph - N/A   Clear
5:15 PM 50.0 °F - 6.8 °F 17% 30.03 in 10.0 mi NW 4.6 mph - N/A   Clear
5:35 PM 49.5 °F - 5.9 °F 17% 30.04 in 10.0 mi NW 6.9 mph - N/A   Clear
5:55 PM 47.7 °F - 9.9 °F 22% 30.04 in 10.0 mi WNW 5.8 mph - N/A   Clear
6:15 PM 47.3 °F - 7.5 °F 20% 30.06 in 10.0 mi WNW 5.8 mph - N/A   Clear
6:35 PM 46.6 °F - 7.2 °F 20% 30.07 in 10.0 mi WNW 4.6 mph - N/A   Clear
6:55 PM 46.0 °F 43.1 °F 6.3 °F 20% 30.08 in 10.0 mi NW 5.8 mph - N/A   Clear
7:15 PM 45.7 °F 43.4 °F 4.1 °F 18% 30.07 in 10.0 mi NNW 4.6 mph - N/A   Clear
7:35 PM 44.6 °F 40.7 °F 4.1 °F 19% 30.08 in 10.0 mi NW 6.9 mph - N/A   Clear
7:55 PM 43.7 °F 41.1 °F 4.1 °F 20% 30.08 in 10.0 mi NW 4.6 mph - N/A   Clear
8:15 PM 42.8 °F 40.1 °F 3.6 °F 20% 30.09 in 10.0 mi NW 4.6 mph - N/A   Clear
8:35 PM 42.1 °F 40.2 °F 4.5 °F 21% 30.09 in 10.0 mi WNW 3.5 mph - N/A   Clear
8:55 PM 41.5 °F 39.6 °F 3.4 °F 21% 30.10 in 10.0 mi NNW 3.5 mph - N/A   Clear
9:15 PM 40.8 °F 38.8 °F 4.3 °F 22% 30.10 in 10.0 mi North 3.5 mph - N/A   Clear
9:35 PM 39.2 °F 35.0 °F 7.7 °F 27% 30.10 in 10.0 mi NNW 5.8 mph - N/A   Clear
10:15 PM 37.4 °F - 7.0 °F 28% 30.11 in 10.0 mi Calm Calm - N/A   Clear
10:35 PM 37.8 °F 35.3 °F 6.6 °F 27% 30.11 in 10.0 mi North 3.5 mph - N/A   Clear
10:55 PM 37.2 °F 34.7 °F 7.0 °F 28% 30.11 in 10.0 mi North 3.5 mph - N/A   Clear
11:57 PM 35.6 °F - 8.6 °F 33% 30.11 in 10.0 mi Calm Calm - N/A   Clear